Powrót do katalogu

STARLINK-35250

AktywnyŁącznośćSSO
NORAD 65603·PAYLOAD·🇺🇸 United States

Wystrzelony Sep 13, 2025 z Cape Canaveral Space Force Station

Loading…

Następne Przeloty (najbliższe 24 godziny)

TLE

ŚwieżeSource: CelesTrak SupGP

Epoka: Sep 14, 2026, 21:32 UTC

1 65603C 25207M   26257.89770833  .02255600  00000+0  11425+0 0  2571
2 65603  97.2841 320.6110 0001670  94.7799 354.6574 15.15935210    12

Śledź STARLINK-35250 w czasie rzeczywistym z AllMySat

Download on the App Store